Location: Cold Norton
(51.6667°N, 0.6667°E)
Time: 01:04:51
(UTC+00:00)

RESURS DK-1 - Pass Details

Date: 18 November 2025
Orbit: 524 x 534 km, 69.9° (Epoch: 13 December)

Event Time Altitude Azimuth Distance (km) Brightness Sun altitude
Rises 16:51:18 0° 329° (NNW) 2,699 6.0 -7.5°
Reaches altitude 10° 16:53:31 10° 332° (NNW) 1,803 5.0 -7.8°
Maximum altitude 16:57:31 68° 55° (NE) 582 2.2 -8.4°
Drops below altitude 10° 17:01:30 10° 140° (SE) 1,790 4.7 -9.0°
Sets 17:03:41 0° 143° (SE) 2,676 5.6 -9.3°
